Location: Caltech
(34.1382°N, 118.1253°W)
Time: 06:39:57
(UTC-07:00)

Iridium 62 - Visible Passes

Search period start: 27 April 2015 00:00
Search period end: 07 May 2015 00:00
Orbit: 776 x 779 km, 86.4° (Epoch: 26 April)

Date Brightness Start Highest point End Pass type
(mag) Time Alt. Az. Time Alt. Az. Time Alt. Az.
27 Apr 8.0 22:36:46 16° NNE 22:36:46 16° NNE 22:37:57 10° NNE visible
28 Apr 8.4 00:17:13 15° NW 00:17:13 15° NW 00:18:22 10° NNW visible
28 Apr 8.2 22:03:05 10° NE 22:03:05 10° NE 22:03:12 10° NE visible
28 Apr 8.0 23:43:32 22° NNW 23:43:32 22° NNW 23:45:30 10° N visible
29 Apr 7.6 23:09:50 27° N 23:09:50 27° N 23:12:09 10° N visible
30 Apr 7.5 22:36:08 24° NNE 22:36:08 24° NNE 22:38:24 10° NNE visible
01 May 8.5 00:16:34 13° NW 00:16:34 13° NW 00:17:41 10° NW visible
01 May 7.7 22:02:24 17° NE 22:02:24 17° NE 22:04:09 10° NNE visible
01 May 7.9 23:42:51 23° NW 23:42:51 23° NW 23:45:16 10° NNW visible
02 May 7.2 23:09:07 35° NNW 23:09:07 35° NNW 23:12:10 10° N visible
03 May 6.8 22:35:22 39° NNE 22:35:22 39° NNE 22:38:39 10° N visible
04 May 8.6 00:15:49 10° WNW 00:15:49 10° WNW 00:16:04 10° WNW visible
04 May 7.1 22:01:36 28° NE 22:01:36 28° NE 22:04:44 10° NNE visible
04 May 8.0 23:42:03 20° WNW 23:42:03 20° WNW 23:44:48 10° NNW visible
05 May 7.6 21:27:49 17° ENE 21:27:49 17° ENE 21:30:11 10° NE visible
05 May 7.1 23:08:16 36° NW 23:08:16 36° NW 23:12:02 10° NNW visible
06 May 6.2 22:34:27 61° NNW 22:34:27 61° NNW 22:38:46 10° N visible
